Regional Weather Roundup
Issued by NWS Boston, MA

Home | Current Version | Previous Version | Text Only | Print | Product List | Glossary On
Versions: 1 2 3 4 5 6 7 8 9 10 11 12 13 14 15 16 17 18 19 20 21 22 23 24 25 26 27 28 29 30 31 32 33 34 35 36 37 38 39 40 41 42 43 44 45 46 47 48 49 50
000
ASUS41 KBOX 180910
RWRBOX

REGIONAL WEATHER ROUNDUP
NATIONAL WEATHER SERVICE TAUNTON MA
500 AM EDT SAT APR 18 2015

NOTE:  "FAIR" INDICATES FEW OR NO CLOUDS BELOW 12,000 FEET WITH NO
SIGNIFICANT WEATHER AND/OR OBSTRUCTIONS TO VISIBILITY.  THE FOLLOWING
OBSERVATION LOCATIONS DO NOT REPORT PRESENT WEATHER...PROVINCETOWN...
SMITHFIELD...BLOCK ISLAND...KEENE...AND OXFORD.

MAZALL-181000-
EASTERN MASSACHUSETTS

CITY           SKY/WX    TMP DP  RH WIND       PRES   REMARKS
BOSTON         CLEAR     51  44  77 NW5       29.91S
BEVERLY        CLEAR     47  42  83 NW5       29.90R
LAWRENCE       CLEAR     46  43  89 SW5       29.93R
BEDFORD        FOG       39  39 100 CALM      29.91R VSB 3/4
BLUE HILL        N/A     48  43  82 NW12      29.90R
NORWOOD        FOG       37  35  92 CALM      29.92R VSB 3/4
MARSHFIELD     CLEAR     48  46  93 W3        29.92S
PLYMOUTH       CLEAR     45  43  93 CALM      29.91S
TAUNTON        MOCLDY    39  38  96 CALM      29.92R FOG
NEW BEDFORD    FOG       41  41 100 CALM      29.91S VSB 3/4
$$

MAZALL-181000-
CAPE COD AND THE ISLANDS

CITY           SKY/WX    TMP DP  RH WIND       PRES   REMARKS
FALMOUTH       CLEAR     46  46 100 CALM      29.91S
HYANNIS        CLEAR     52  46  80 NW5       29.89S
CHATHAM        CLEAR     49  47  93 NW3       29.91S
PROVINCETOWN   CLEAR     46  43  87 W5        29.91S
NANTUCKET      LGT RAIN  45  42  89 NW6       29.91F
MARTHAS VNYRD  CLEAR     43  43 100 NW5       29.91S FOG
$$

MAZALL-181000-
CENTRAL AND WESTERN MASSACHUSETTS

CITY           SKY/WX    TMP DP  RH WIND       PRES   REMARKS
WORCESTER      CLEAR     50  41  71 NW14      29.92S
FITCHBURG      CLEAR     50  41  71 N7        29.92S
ORANGE         MOCLDY    34  33  96 CALM      29.93F
SPRINGFIELD    FOG       37  36  93 CALM      29.94R VSB 1
WESTFIELD      CLEAR     45  41  86 S3        29.94R
NORTH ADAMS    CLEAR     34  32  92 CALM      29.96S FOG
PITTSFIELD     FOG       38  37  97 CALM      29.94S VSB 1/4
$$

RIZALL-181000-
RHODE ISLAND

CITY           SKY/WX    TMP DP  RH WIND       PRES   REMARKS
PROVIDENCE     CLEAR     48  43  82 CALM      29.92S
NEWPORT        CLEAR     46  43  89 W3        29.92S
BLOCK ISLAND   CLEAR     50  45  81 NW7       29.93S
SMITHFIELD     CLEAR     46  39  76 W3        29.91S
WESTERLY       CLEAR     45  43  93 CALM      29.94S
$$

CTZALL-181000-
CONNECTICUT

CITY           SKY/WX    TMP DP  RH WIND       PRES   REMARKS
BRADLEY INTL   CLEAR     46  42  86 W3        29.94R
HARTFORD       FOG       41  40  96 MISG      29.96R VSB 1/4
BRIDGEPORT     CLEAR     47  44  90 CALM      29.96R
DANBURY        CLEAR     42  38  85 CALM      29.97S
GROTON         CLEAR     43  41  93 CALM      29.93S FOG
NEW HAVEN      CLEAR     42  41  96 CALM      29.95S FOG
CHESTER        FAIR      54  46  76 NW10      29.95S
MERIDEN        PTCLDY    43  40  89 CALM      29.95S FOG
WILLIMANTIC    MOCLDY    40  38  93 CALM      29.95R FOG
OXFORD         CLEAR     48  39  71 NW3       29.97S
$$

MEZ002-015-021-024-NHZ003-005-008-011-012-014-VTZ005-008-181000-
NORTHERN NEW ENGLAND

CITY           SKY/WX    TMP DP  RH WIND       PRES   REMARKS
PORTLAND ME    CLEAR     47  40  76 W5        29.91R
BANGOR ME      CLEAR     40  30  67 N9        29.93R
CONCORD NH     PTCLDY    37  36  96 CALM      29.92S FOG
MANCHESTER NH  CLEAR     43  39  86 CALM      29.90S
NASHUA NH      CLEAR     40  39  96 CALM      29.92S
PORTSMOUTH NH  CLEAR     47  44  88 W6        29.89S
JAFFREY NH     CLEAR     41  39  93 SE6       29.92F
KEENE NH       PTCLDY    37  36  93 CALM      29.94F
BURLINGTON VT  PTCLDY    43  30  60 SW5       29.94R
MT. WASHINGTON PTCLDY    27  19  74 NW38        N/A  WCI   9
$$

NYZ052-076-181000-
EASTERN NEW YORK

CITY           SKY/WX    TMP DP  RH WIND       PRES   REMARKS
ALBANY         CLEAR     43  40  89 S5        29.95S
NEW YORK CITY  PTCLDY    58  44  60 CALM      29.96R
$$

ANZALL-181000-
MARINE OBSERVATIONS

STATION/POSITION TIME  TEMP    WIND        PRES    VSBY  WAVE
                       AIR SEA DIR/SP/G                  HT/PER
                 (UTC) (F)     (DEG/KT/KT) (MB)    (MI)  (FT/S)
BOSTON BUOY      0850   47 42  280/  8/  8 1012.9R         1/11
BUZZARDS BAY     0900          320/  8/  9 1013.7R
NANTUCKET SOUND  0850   47 44  270/  4/  4 1013.2R         1
MASS BAY-STELLWA 0804   47 42  280/ 10/ 10   N/A    1 7/8  2/ 8
ISLE OF SHOALS   0900   51     290/ 10/ 10 1011.6R
S OF BLOCK IS    0808      40                N/A           4/ 7
$$

......................KEY.........................
  SKY/WX - SKY CONDITION/PRESENT WEATHER
  TMP    - TEMPERATURE IN FAHRENHEIT
  DWPT   - DEWPOINT IN FAHRENHEIT
  RH     - RELATIVE HUMIDITY IN PERCENT
  WIND   - DIRECTION AND SPEED IN MPH
  PRES   - MEAN SEA LEVEL PRESSURE IN INCHES OF HG
  WCI    - WIND CHILL INDEX
  VSB    - VISIBILITY IN MILES
  HX     - HEAT INDEX
  TC     - TEMPERATURE IN CELSIUS
  VRB    - VARIABLE WIND DIRECTION
  N/A    - NOT AVAILABLE


USA.gov is the U.S. government's official web portal to all federal, state and local government web resources and services.